www.pogodaiklimat.ru

Погода и климат >> Архив погоды >> Канада >> Нунавут >> Шеперд-Бей


ПОГОДА в Шеперд-Бее

  • Прогноз погоды в Шеперд-Бее
  • Монитор погоды в Шеперд-Бее

АРХИВ ПОГОДЫ в Шеперд-Бее

Время (UTC), дата Ветер
(напр.,м/с)
 
Видим.   Явления Облачность Т
(С)
Тd
(С)
f
(%)
Тe
(С)
Тes
(С)
Комфортность P
(гПа)
Po
(гПа)
Тmin
(С)
Tmax
(С)
R
(мм)
R24
(мм)
S
(см)
00 10.09 Ю 6 н/о ясно +6.9 +3.8 81 +3 +3 1016.6 1011.1
03 10.09 ЮЗ 7 н/о 10/10 1000 м
[]
+7.0 +5.0 87 +2 +2 1014.3 1008.8
06 10.09 Ю 4 н/о 10/10 1500 м
[]
+6.4 +5.0 91 +2 +2 1012.0 1006.5 +1.6 +7.3
09 10.09 Ю 5 н/о 10/0
[]
+5.0 +4.0 93 0 0 1009.8 1004.3
12 10.09 ЮВ 4 н/о 10/10 1000 м
[]
+4.8 +4.3 97 +1 +1 1008.9 1003.5
15 10.09 В 2 н/о 10/10 1000 м
[]
+5.7 +5.2 97 +3 +3 1009.3 1003.9
18 10.09 В 3 н/о 10/10 200 м
[]
+7.4 +5.9 90 +5 +5 1010.4 1005.0
21 10.09 СВ 6 н/о 5/5 300 м
[]
+8.4 +6.8 90 +4 +5 1012.1 1006.6
00 11.09 СВ 5 н/о ясно +6.7 +4.6 86 +2 +3 1013.6 1008.1
03 11.09 В 4 н/о ясно +2.8 +2.6 99 -2 -2 1015.1 1009.6
06 11.09 В 3 н/о 10/10 300 м
[]
+1.7 +1.7 100 -3 -3 1016.0 1010.5 +1.7 +9.1
09 11.09 ЮЗ 1 н/о 10/10 100 м
[]
+1.0 +0.9 99 0 0 1016.6 1011.1
12 11.09 С 3 н/о 10/10 50 м
[]
+2.1 +2.1 100 -2 -2 1017.6 1012.1
15 11.09 СЗ 3 н/о 10/10 50 м
[]
+1.5 +1.5 100 -3 -3 1018.2 1012.7
18 11.09 СЗ 5 н/о 10/10 50 м
[]
+2.3 +2.0 98 -4 -4 1018.7 1013.2
21 11.09 З 3 н/о 10/10 100 м
[]
+3.4 +2.9 97 -0 -0 1018.5 1013.0
18 13.09 В 7 н/о 9/9 300 м
[]
+3.2 -0.5 77 -3 -3 1008.2
21 13.09 В 6 н/о 5/5 600 м
[]
+4.5 +0.5 75 -1 -0 1007.9
00 14.09 В 6 н/о ясно +2.6 +0.3 85 -3 -3 1007.8
03 14.09 В 6 н/о 5/0
[]
+1.0 -0.2 92 -5 -5 1007.3
06 14.09 В 6 н/о 10/10 300 м
[]
+1.8 +0.7 92 -5 -5 1012.1 1006.6 -0.4 +5.0
09 14.09 В 5 н/о 10/10 300 м
[]
+2.5 +2.0 96 -3 -3 1011.6 1006.1
12 14.09 В 6 н/о 10/10 1000 м
[]
+2.6 +2.3 98 -4 -4 1011.0 1005.5
15 14.09 В 6 н/о 10/10 1000 м
[]
+4.4 +3.2 92 -1 -1 1010.6 1005.1
00 15.09 ЮВ 4 н/о 10/10 300 м
[]
+6.7 +4.7 87 +3 +3 1009.8 1004.3
03 15.09 В 4 н/о 10/10 600 м
[]
+5.3 +4.1 92 +1 +1 1009.5 1004.0
06 15.09 В 4 н/о 10/10 300 м
[]
+4.4 +3.8 96 0 0 1003.9 +4.4 +7.7
09 15.09 В 5 н/о 10/10 1000 м
[]
+3.4 +3.2 99 -2 -2 1003.3
12 15.09 ЮВ 4 н/о 10/10 300 м
[]
+4.6 +4.2 97 0 0 1008.6 1003.2
15 15.09 ЮВ 7 н/о 10/10 200 м
[]
+5.6 +4.9 95 0 0 1007.1 1001.7
18 15.09 ЮВ 8 н/о 10/10 1500 м
[]
+7.9 +5.7 86 +3 +3 1005.3 999.9
21 15.09 В 11 н/о 9/9 600 м
[]
+6.6 +5.9 95 0 0 1003.4 998.0
00 16.09 ЮВ 9 н/о 10/10 300 м
[]
+6.6 +6.1 97 +1 +1 1000.4 995.0
03 16.09 ЮВ 8 н/о 10/10 300 м
[]
+6.6 +6.3 98 +1 +1 998.4 993.0
06 16.09 ЮВ 8 н/о 9/9 200 м
[]
+6.9 +6.7 99 +2 +2 996.9 991.5 +3.2 +8.0
09 16.09 ЮЗ 9 н/о 10/10 50 м
[]
+4.6 +4.6 100 -2 -2 998.5 993.1
12 16.09 ЮЗ 5 н/о 10/10 50 м
[]
+4.2 +4.2 100 -1 -1 1001.0 995.6
15 16.09 ЮЗ 10 н/о 10/10 100 м
[]
+4.0 +3.8 99 -3 -3 1002.6 997.2
18 16.09 ЮЗ 10 н/о 10/10 100 м
[]
+3.4 +3.0 97 -4 -4 1004.0 998.6
21 16.09 ЮЗ 9 н/о 10/10 200 м
[]
+3.4 +2.7 95 -4 -4 1004.7 999.3

 

Местоположение метеостанции Шеперд-Бей (Нунавут, Канада): широта 68.82 долгота -93.43 высота над уровнем моря 42 м.

В архиве по умолчанию представлена погода в Шеперд-Бее за последнюю неделю. Архивные данные за месяц целиком и за предыдущие месяцы, начиная с января 2011 года, Вы можете получить, выбрав интересующий диапазон дат из раскрывающегося списка и нажав кнопку "Ввод!".


*Определитесь, кто Вы:
робот инопланетянин человек

Внимание! Время в таблицах - всемирное. Для получения местного времени необходимо прибавить поправку, которая равна -6 ч.

Смотрите также архив погоды в соседних городах и на ближайших метеорологических станциях:

Погода в Талойоаке (Нунавут, Канада) (81 км)
Погода в Джойа Хейвен (Нунавут, Канада) (100 км)
Погода в Кугааруке (Нунавут, Канада) (150 км)
Погода в Кам Фор (Нунавут, Канада) (157 км)
Погода на Острове Хат (Нунавут, Канада) (273 км)
Погода в Глеичене (Альберта, Канада) (332 км)
Погода в Вейджер Бэй (Нунавут, Канада) (369 км)
Погода в Кеймбридж-Бее (Нунавут, Канада) (466 км)
Погода в Кембридж Бэй (Нунавут, Канада) (466 км)
Погода в Холл Бич (Нунавут, Канада) (489 км)

Пояснения к столбцам:

Ветер - указаны скорость ветра в м/с - средняя за 10 мин, порывы в срок и между сроками (в фигурных скобках) и направление, откуда дует ветер: С - северный, СВ - северо-восточный, В - восточный, ЮВ - юго-восточный, Ю - южный, ЮЗ - юго-западный, З - западный, СЗ - северо-западный.
Видимость - горизонтальная дальность видимости в метрах или километрах. При видимости от 1 до 10 км при отсутствии осадков обычно наблюдается дымка, при ухудшении видимости до 1 км и менее - туман. В сухую погоду видимость может ухудшаться дымом, пылью или мглою.
Явления - указаны атмосферные явления, наблюдавшиеся в срок или в последний час перед сроком; фигурными скобками обозначены явления, наблюдавшиеся между сроками (за 1-3 часа до срока); квадратными скобками обозначены град или гололедные отложения с указанием их диаметра в мм.
Облачность - указаны через наклонную черту общая и нижняя облачность в баллах и высота нижней границы облаков в метрах; квадратными скобками обозначены формы облаков: Ci - перистые, Cs - перисто-слоистые, Cc - перисто-кучевые, Ac - высококучевые, As - высокослоистые, Sc - слоисто-кучевые, Ns - слоисто-дождевые, Cu - кучевые, Cb - кучево-дождевые. Подробнее классификацию облаков см. в Атласе облаков (PDF).
T - Температура воздуха - температура, измеренная на высоте 2 м над землей.
Td - Температура точки росы - температура, при понижении до которой содержащийся в воздухе водяной пар достигнет насыщения.
f - Относительная влажность воздуха - влажноcть воздуха, измеренная на высоте 2 м над землей.
Te - Эффективная температура - температура, которую ощущает одетый по сезону человек в тени. Характеристика душности погоды. При расчете учитывается влияние влажности воздуха и скорости ветра на теплоощущения человека.
Tes - Эффективная температура на солнце - температура, которую ощущает человек, с поправкой на солнечный нагрев. Характеристика знойности погоды. Зависит от высоты солнца над горизонтом, облачности и скорости ветра. Ночью, в пасмурную погоду, а также при ветре 12 м/с и более поправка равна нулю.
P - Атмосферное давление - приведенное к уровню моря атмосферное давление.
Po - Атмосферное давление - измеренное на уровне метеостанции атмосферное давление.
Tmin - Минимальная температура - минимум температуры воздуха на высоте 2 м над землей.
Tmax - Максимальная температура - максимум температуры воздуха на высоте 2 м над землей.
R - Количество осадков - Количество выпавших осадков за период времени, мм. При наведении курсора мыши на число - период времени, за который выпало указанное количество осадков.
R24 - Количество осадков - Количество выпавших осадков за 24 часа, мм.
S - Снежный покров - Высота снежного покрова, см. При наведении курсора мыши на число - состояние снежного покрова и степень покрытия местности в баллах.